Location: Fontevrault
(47.1823°N, 0.0493°E)
Time: 09:26:28
(UTC+00:00)

COSMOS 2428 - Pass Details

Date: 16 June 2021
Orbit: 845 x 858 km, 70.9° (Epoch: 02 August)

Event Time Altitude Azimuth Distance (km) Brightness Sun altitude
Exits shadow 22:01:02 21° 164° (SSE) 1,847 3.9 -14.5°
Maximum altitude 22:04:22 40° 107° (ESE) 1,252 3.3 -14.7°
Drops below altitude 10° 22:09:40 10° 40° (NE) 2,501 5.5 -15.1°
Sets 22:12:16 0° 33° (NNE) 3,442 6.3 -15.3°
